"Pseudo-MPEC" for C25A7J2

Created 2020 Feb 15 18:07:09 UT using Find_Orb

Click here for an explanation of pseudo-MPECs

 
 Astrometry: 
     C25A7J2  C2020 02 14.48224 12 05 21.00 +17 51 54.1    ~2ECM 20.1 GVNEOCPG96
     C25A7J2  C2020 02 14.48743 12 05 26.25 +17 50 59.2    ~2ECM 20.2 GVNEOCPG96
     C25A7J2  C2020 02 14.49263 12 05 31.51 +17 50 04.5    ~2ECM 20.0 GVNEOCPG96
     C25A7J2  C2020 02 14.49781 12 05 36.64 +17 49 10.8    ~2ECM 20.0 GVNEOCPG96
     C25A7J2  C2020 02 14.53634 12 06 15.38 +17 42 28.2    ~2ED7 19.8 GVNEOCPV06
     C25A7J2  C2020 02 14.53644 12 06 15.44 +17 42 26.7    ~2EDM 19.2 GVNEOCPI52
     C25A7J2  C2020 02 14.53698 12 06 16.03 +17 42 21.6    ~2ED7 20.4 GVNEOCPV06
     C25A7J2  C2020 02 14.53762 12 06 16.68 +17 42 14.9    ~2ED7 20.3 GVNEOCPV06
     C25A7J2  C2020 02 14.53826 12 06 17.31 +17 42 07.9    ~2ED7 20.1 GVNEOCPV06
     C25A7J2  C2020 02 14.53910 12 06 18.21 +17 41 59.5    ~2EDM 20.1 GVNEOCPI52
     C25A7J2  C2020 02 14.54016 12 06 19.18 +17 41 47.8    ~2EDM 19.6 GVNEOCPI52
     C25A7J2 pC2020 02 14TDTV6@O'ErGC3wT]AN?H\BIr'BoB3,w1;-![\(ZT)#BdTvGOJ@x`L01
     C25A7J2 pC2020 02 14!XCx(f14=wOJxd,[D;](VY)`]I^C@9Vc7^)Astrometry#rFpRfWL01
     C25A7J2 KC2020 02 14.95054 12 13 51.62 +16 35 58.7    ~2F0q 20.1 VqNEOCPI93
     C25A7J2 pC2020 02 143erRg/ZwB]%guHa5$KT)5U)kK\W\Iv.!==6;_TRu(A]=ybCp'+KdL01
     C25A7J2 KC2020 02 14.96064 12 14 00.60 +16 34 32.5    ~2F0q 20.1 VqNEOCPI93
     C25A7J2 KC2020 02 14vQF-3J*BKG9;yIIqyQ86Hredacted;8xE.HclickL9t75%7B8a4g204
     C25A7J2 KC2020 02 15(N\D',mx_xkuF)Mlku*I/s(GoAbv/O$]fdrpc1HT,o73a\bYffC9204
     C25A7J2 KC2020 02 15.02230 12 14 53.52 +16 25 50.1    ~2F0q 19.9 VqNEOCPI93
     C25A7J2 KC2020 02 15nD.i,^y6\?!tid_7rherek,cXGE@[e`$$UHfDT%CDAZF`[tOyYgq203
     C25A7J2 KC2020 02 15$M4\uYW0x=4Vr6vqD!niCN5)/0Y.iYnMm*;2XY4+61[fqJ/y_m/I203
     C25A7J2 KC2020 02 15q9Qa-xE0Yav7@w%3k\HW-rg,2Z;5`g(@rCMpi7OPhgJeG)R8eUorH21
     C25A7J2 KC2020 02 15'6%mJt)d;1*3U2*x#3NkTR0![=9!rcsSyRGJ'P4B;sVp+:nbMv.(H21
     C25A7J2 KC2020 02 15(r)5w?a`lo9EclRH-K$X0rFWZN_S1WforBbv^HCSbho%n;1p\OZFH21
     C25A7J2 KC2020 02 15m;smrSu1`-i)IegL.thPimx^%o`;DAk659.B4?)u.fEN-q6'_AJ,H21
     C25A7J2 KC2020 02 15s.eBn[@iwf%f%g.9-k5oWZw+4Ej/IP(WKQexplanationkoNWOn6H21
     C25A7J2  C2020 02 15.31441 12 19 15.18 +15 46 08.9    ~2F87 20.5 GVNEOCPI52
     C25A7J2  C2020 02 15.31721 12 19 17.26 +15 45 47.2    ~2F87 20.5 GVNEOCPI52
     C25A7J2  C2020 02 15.32097 12 19 19.70 +15 45 21.3    ~2F87       VNEOCPI52
     C25A7J2  C2020 02 15.32245 12 19 21.12 +15 45 06.5    ~2F87 20.7 GVNEOCPI52

Station data:
(203) GiaGa Observatory  (N45.541408 E8.995500)  Italy. 0.13-m f/6.4
   refractor.
(204) Schiaparelli Observatory  (N45.867933 E8.770800)  Italy.  Observer L.
   Buzzi. 0.60-m f/4.64 Newtonian + CCD.
(G96) Mt. Lemmon Survey  (N32.442754 W110.788720)  US/Arizona.  Observers T.
   A. Pruyne, B. M. Africano, E. J. Christensen, G. A. Farneth, D. C. Fuls,
   A. R. Gibbs, A. D. Grauer, H. Gröller, J. A. Johnson, R. A. Kowalski, S.
   M. Larson, G. J. Leonard, D. Rankin, R. L. Seaman, F. C. Shelly. 1.5-m
   reflector + 10K CCD.
(H21) Astronomical Research Observatory, Westfield  (N39.483057 W87.968270)
   US/Illinois. 0.76-m f/3.0 astrograph + CCD.
(I52) Steward Observatory, Mt. Lemmon Station  (N32.442547 W110.788920)
   US/Arizona.  Observers T. A. Pruyne, B. M. Africano, E. J. Christensen, G.
   A. Farneth, D. C. Fuls, A. R. Gibbs, A. D. Grauer, H. Gröller, J. A.
   Johnson, R. A. Kowalski, S. M. Larson, G. J. Leonard, D. Rankin, R. L.
   Seaman, F. C. Shelly. 1.0-m reflector + CCD.
(I93) St Pardon de Conques  (N44.558710 W0.203000)  France.  Observer F.
   Losse. 0.40-m f/3.7 reflector + CCD.
(L01) Višnjan Observatory, Tičan  (N45.290900 E13.749300)  Croatia.
   Observers K. Korlević, E. Pettarin. Measurer E. Pettarin. 1.0-m f/2.9
   reflector + CCD.
(V06) Catalina Sky Survey-Kuiper  (N32.416847 W110.732550)  US/Arizona.
   Observers T. A. Pruyne, B. M. Africano, E. J. Christensen, G. A. Farneth,
   D. C. Fuls, A. R. Gibbs, A. D. Grauer, H. Gröller, J. A. Johnson, R. A.
   Kowalski, S. M. Larson, G. J. Leonard, D. Rankin, R. L. Seaman, F. C.
   Shelly. 1.55-m reflector + CCD.

Orbital elements:  C25A7J2
   Perihelion 2020 Jan 28.724817 +/- 0.00781 TT = 17:23:44 (JD 2458877.224817)
Epoch 2020 Feb 15.0 TT = JDT 2458894.5   Earth MOID: 0.0027   Ma: 0.0489
M   5.41125792 +/- 0.032            (J2000 ecliptic)          AutoNEOCP
n   0.31323881 +/- 0.00195          Peri.  348.91270 +/- 0.032
a   2.14726509 +/- 0.0089           Node   135.96095 +/- 0.014
e   0.5418227 +/- 0.00192           Incl.    2.26354 +/- 0.007
P   3.15                   H 27.2   G  0.15   U  8.5  
q 0.98382793 +/- 5.09e-5    Q 3.31070225 +/- 0.0179
From 30 observations 2020 Feb. 14-15 (20.2 hr); mean residual 0".76
Residuals in arcseconds: 
200214 G96  .57-  .60+    200214 I52  .91-  .30-    200215 203  .78-  .57+    
200214 G96  .13+  .06-    200214 L01  .25-  .51+    200215 H21  .22+  .05-    
200214 G96  .81+  .40-    200214 L01  .30+  .07-    200215 H21  .55+  .29-    
200214 G96  .10-  .05+    200214 I93  .07+  .06-    200215 H21  .49+  .13-    
200214 V06  .18+  .10+    200214 L01  .44-  .33-    200215 H21  .66+  .16-    
200214 I52  .68-  .26-    200214 I93  .34+  .49-    200215 H21  .48+  .22+    
200214 V06  .24+  .19+    200214 204  .09-  .55-    200215 I52  .84+  .48-    
200214 V06  .30+  .17+    200215 204  .14+  .27-    200215 I52  .85+  .54-    
200214 V06  .07+  .14-    200215 I93  .25+  .26-    200215 I52  4.1-  2.6+    
200214 I52  .53+  .33+    200215 203  .18-  .36+    200215 I52  .61+  .73-    

Ephemerides (geocentric):
Date (UTC) HH   RA              Dec         delta   r     elong  mag " sig PA
---- -- -- --  -------------   -----------  ------ ------ -----  --- ---- ---
2020 02 15 18  12 24 45.218   +14 53 04.90  .02786 1.0102 143.4 20.9 .331 148
2020 02 15 19  12 25 15.520   +14 48 09.47  .02803 1.0103 143.3 20.9 .432 145
2020 02 15 20  12 25 45.429   +14 43 17.31  .02820 1.0104 143.2 21.0 .537 143
2020 02 15 21  12 26 14.951   +14 38 28.38  .02836 1.0105 143.1 21.0 .647 141
2020 02 15 22  12 26 44.094   +14 33 42.62  .02853 1.0106 143.0 21.0 .760 140
2020 02 15 23  12 27 12.865   +14 28 59.99  .02870 1.0108 142.9 21.0 .877 139
2020 02 16 00  12 27 41.270   +14 24 20.45  .02887 1.0109 142.9 21.0 1.00 138
2020 02 16 01  12 28 09.315   +14 19 43.95  .02903 1.0110 142.8 21.0 1.12 137
2020 02 16 02  12 28 37.007   +14 15 10.44  .02920 1.0111 142.7 21.1 1.25 137
2020 02 16 03  12 29 04.352   +14 10 39.89  .02937 1.0112 142.6 21.1 1.38 136
2020 02 16 04  12 29 31.355   +14 06 12.25  .02954 1.0114 142.6 21.1 1.51 136
2020 02 16 05  12 29 58.023   +14 01 47.48  .02971 1.0115 142.5 21.1 1.65 136
2020 02 16 06  12 30 24.361   +13 57 25.54  .02988 1.0116 142.4 21.1 1.78 135
2020 02 16 07  12 30 50.376   +13 53 06.39  .03005 1.0117 142.3 21.1 1.92 135
2020 02 16 08  12 31 16.071   +13 48 49.98  .03022 1.0119 142.3 21.1 2.07 135
2020 02 16 09  12 31 41.453   +13 44 36.29  .03039 1.0120 142.2 21.2 2.21 134
2020 02 16 10  12 32 06.528   +13 40 25.26  .03055 1.0121 142.1 21.2 2.36 134
2020 02 16 11  12 32 31.299   +13 36 16.87  .03072 1.0122 142.1 21.2 2.51 134
2020 02 16 12  12 32 55.773   +13 32 11.07  .03089 1.0124 142.0 21.2 2.66 134
2020 02 16 13  12 33 19.953   +13 28 07.83  .03106 1.0125 141.9 21.2 2.81 134
2020 02 16 14  12 33 43.845   +13 24 07.12  .03123 1.0126 141.9 21.2 2.97 133
2020 02 16 15  12 34 07.454   +13 20 08.90  .03140 1.0127 141.8 21.2 3.12 133
2020 02 16 16  12 34 30.784   +13 16 13.12  .03157 1.0128 141.8 21.2 3.28 133
2020 02 16 17  12 34 53.839   +13 12 19.77  .03175 1.0130 141.7 21.3 3.44 133
2020 02 16 18  12 35 16.625   +13 08 28.80  .03192 1.0131 141.6 21.3 3.60 133
2020 02 16 19  12 35 39.144   +13 04 40.18  .03209 1.0132 141.6 21.3 3.76 133
2020 02 16 20  12 36 01.402   +13 00 53.89  .03226 1.0133 141.5 21.3 3.93 133
2020 02 16 21  12 36 23.403   +12 57 09.88  .03243 1.0135 141.5 21.3 4.09 132
2020 02 16 22  12 36 45.151   +12 53 28.13  .03260 1.0136 141.4 21.3 4.26 132
2020 02 16 23  12 37 06.649   +12 49 48.60  .03277 1.0137 141.4 21.3 4.43 132
2020 02 17 00  12 37 27.902   +12 46 11.27  .03294 1.0139 141.3 21.4 4.59 132
2020 02 17 01  12 37 48.914   +12 42 36.10  .03311 1.0140 141.3 21.4 4.76 132
2020 02 17 02  12 38 09.687   +12 39 03.07  .03329 1.0141 141.2 21.4 4.93 132
2020 02 17 03  12 38 30.226   +12 35 32.14  .03346 1.0142 141.2 21.4 5.10 132
2020 02 17 04  12 38 50.535   +12 32 03.29  .03363 1.0144 141.1 21.4 5.27 132
2020 02 17 05  12 39 10.616   +12 28 36.50  .03380 1.0145 141.1 21.4 5.44 132
2020 02 17 06  12 39 30.474   +12 25 11.72  .03397 1.0146 141.0 21.4 5.62 132
2020 02 17 07  12 39 50.112   +12 21 48.94  .03415 1.0147 141.0 21.4 5.79 132
2020 02 17 08  12 40 09.532   +12 18 28.13  .03432 1.0149 140.9 21.5 5.96 132
2020 02 17 09  12 40 28.739   +12 15 09.26  .03449 1.0150 140.9 21.5 6.14 132
2020 02 17 10  12 40 47.736   +12 11 52.31  .03466 1.0151 140.8 21.5 6.31 131
2020 02 17 11  12 41 06.524   +12 08 37.25  .03484 1.0153 140.8 21.5 6.49 131
2020 02 17 12  12 41 25.109   +12 05 24.05  .03501 1.0154 140.8 21.5 6.66 131
2020 02 17 13  12 41 43.492   +12 02 12.70  .03518 1.0155 140.7 21.5 6.84 131
2020 02 17 14  12 42 01.677   +11 59 03.17  .03535 1.0156 140.7 21.5 7.01 131
2020 02 17 15  12 42 19.666   +11 55 55.43  .03553 1.0158 140.6 21.5 7.19 131
2020 02 17 16  12 42 37.462   +11 52 49.45  .03570 1.0159 140.6 21.6 7.37 131
2020 02 17 17  12 42 55.068   +11 49 45.23  .03587 1.0160 140.6 21.6 7.54 131